Location: Sungai Kamana Besar
(2.6333°N, 113.4333°E)
Time: 05:59:05
(UTC+00:00)

COSMOS 2406 - Pass Details

Date: 29 May 2022
Orbit: 842 x 864 km, 71.0° (Epoch: 26 June)

Event Time Altitude Azimuth Distance (km) Brightness Sun altitude
Exits shadow 20:46:54 36° 210° (SSW) 1,329 3.8 -21.3°
Maximum altitude 20:49:18 72° 285° (WNW) 898 3.1 -20.8°
Drops below altitude 10° 20:55:00 10° 9° (N) 2,487 6.1 -19.5°
Sets 20:57:28 0° 12° (NNE) 3,424 6.9 -18.9°
